Printer-friendly version
Follow the MPC on Twitter Follow the MPC on Facebook The MPC blog
Minor Planet Center

MPEC 2010-N38 : 2010 MA113

The following Minor Planet Electronic Circular may be linked-to from your own Web pages, but must not otherwise be redistributed electronically.

A form allowing access to any MPEC is at the bottom of this page.


Read MPEC 2010-N37 Read MPEC 2010-N39


M.P.E.C. 2010-N38                                Issued 2010 July 8, 18:54 UT

     The Minor Planet Electronic Circulars contain information on unusual
         minor planets and routine data on comets.  They are published
   on behalf of Commission 20 of the International Astronomical Union by the
          Minor Planet Center, Smithsonian Astrophysical Observatory,
                          Cambridge, MA 02138, U.S.A.

             Prepared using the Tamkin Foundation Computer Network

                              MPC@CFA.HARVARD.EDU
       URL http://www.minorplanetcenter.org/iau/mpc.html  ISSN 1523-6714

                                  2010 MA113

Observations:
     K10MB3A* S2010 06 25.53294 02 55 34.65 -55 58 16.2          19   R EN038C51
     K10MB3A  s2010 06 25.53294 1 + 2910.1177 -  788.4605 - 6221.2076   EN038C51
     K10MB3A  S2010 06 25.59916 02 55 42.29 -55 54 49.2                 EN038C51
     K10MB3A  s2010 06 25.59916 1 + 2874.4778 -  787.9840 - 6237.8423   EN038C51
     K10MB3A  S2010 06 25.66524 02 55 50.05 -55 51 23.2                 EN038C51
     K10MB3A  s2010 06 25.66524 1 + 2913.8854 -  782.1234 - 6220.2921   EN038C51
     K10MB3A  S2010 06 25.73133 02 55 57.79 -55 47 55.6                 EN038C51
     K10MB3A  s2010 06 25.73133 1 + 2952.7554 -  776.0664 - 6202.6653   EN038C51
     K10MB3A  S2010 06 25.73146 02 55 57.75 -55 47 54.8                 EN038C51
     K10MB3A  s2010 06 25.73146 1 + 2877.0996 -  781.7248 - 6237.4441   EN038C51
     K10MB3A  S2010 06 25.86364 02 56 13.21 -55 40 57.8                 EN038C51
     K10MB3A  s2010 06 25.86364 1 + 2954.7126 -  769.2342 - 6202.6414   EN038C51
     K10MB3A  S2010 06 25.92985 02 56 20.89 -55 37 27.0                 EN038C51
     K10MB3A  s2010 06 25.92985 1 + 2918.8019 -  768.5237 - 6219.6078   EN038C51
     K10MB3A  S2010 06 25.99594 02 56 28.60 -55 33 56.7                 EN038C51
     K10MB3A  s2010 06 25.99594 1 + 2958.7522 -  761.9427 - 6201.7554   EN038C51
     K10MB3A  S2010 06 26.26055 02 56 59.40 -55 19 45.1          20   R EN038C51
     K10MB3A  s2010 06 26.26055 1 + 2966.0393 -  748.5170 - 6199.8660   EN038C51
     K10MB3A  S2010 06 26.32664 02 57 07.06 -55 16 10.3                 EN038C51
     K10MB3A  s2010 06 26.32664 1 + 3004.6237 -  741.8828 - 6181.9828   EN038C51
     K10MB3A  S2010 06 26.39285 02 57 14.77 -55 12 33.8                 EN038C51
     K10MB3A  s2010 06 26.39285 1 + 2967.9108 -  741.6265 - 6199.7974   EN038C51
     K10MB3A  S2010 06 26.52516 02 57 30.15 -55 05 19.9                 EN038C51
     K10MB3A  s2010 06 26.52516 1 + 2972.2777 -  734.2794 - 6198.5557   EN038C51
     K10MB3A  S2010 06 26.59124 02 57 37.79 -55 01 42.0                 EN038C51
     K10MB3A  s2010 06 26.59124 1 + 3012.0754 -  727.5191 - 6180.0818   EN038C51
     K10MB3A  S2010 06 26.65733 02 57 45.51 -54 58 03.4                 EN038C51
     K10MB3A  s2010 06 26.65733 1 + 3051.0690 -  720.7612 - 6161.7385   EN038C51
     K10MB3A  S2010 06 26.65746 02 57 45.46 -54 58 02.7                 EN038C51
     K10MB3A  s2010 06 26.65746 1 + 2976.0387 -  727.7393 - 6197.5436   EN038C51
     K10MB3A  S2010 06 26.72355 02 57 53.16 -54 54 23.1                 EN038C51
     K10MB3A  s2010 06 26.72355 1 + 3014.6281 -  720.9459 - 6179.6309   EN038C51
     K10MB3A  S2010 06 26.85585 02 58 08.53 -54 47 00.4                 EN038C51
     K10MB3A  s2010 06 26.85585 1 + 3016.3589 -  714.0053 - 6179.6582   EN038C51
     K10MB3A  S2010 06 26.98815 02 58 23.93 -54 39 34.6                 EN038C51
     K10MB3A  s2010 06 26.98815 1 + 3020.0342 -  706.5722 - 6178.8218   EN038C51

Observer details:
C51 WISE.  Measurers A. Mainzer, E. Wright, J. Bauer, T. Grav, J. Dailey,
    J. Masiero, R. Cutri, R. McMillan, R. Walker.

Orbital elements:
2010 MA113                                               Earth MOID = 0.0815 AU
Epoch 2010 June 13.0 TT = JDT 2455360.5                 MPC
M 342.51134              (2000.0)            P               Q
n   0.29467797     Peri.   27.10801     +0.83660450     +0.23961633
a   2.2365105      Node   309.45834     -0.54162628     +0.49651734
e   0.6009957      Incl.   39.64584     +0.08206021     +0.83429884
P   3.34           H   19.2           G   0.15
From 18 observations 2010 June 25-26.

Ephemeris:
2010 MA113               a,e,i = 2.24, 0.60, 40                  q = 0.8924
Date    TT    R. A. (2000) Decl.     Delta      r     Elong.  Phase     V
2010 07 03    03 10.10   -47 45.5    0.322    1.044    85.9    76.2    19.5
2010 07 08    03 20.52   -39 09.2    0.264    1.011    81.4    83.7    19.3
2010 07 13    03 32.39   -26 00.7    0.214    0.981    74.5    93.4    19.1
2010 07 18    03 46.78   -06 15.5    0.180    0.955    65.2   104.9    19.3
2010 07 23    04 05.10   +18 27.6    0.174    0.933    57.1   113.9    19.7

Sonia Keys                   (C) Copyright 2010 MPC           M.P.E.C. 2010-N38

Read MPEC 2010-N37 Read MPEC 2010-N39


MPEC number:

Enter an MPEC number in one of the following forms:

  • 1997-B01 (the full form)
  • J97B01 (the packed version of the full form)
  • B01 (the abbreviated form)

Valid HTML 4.01!